TimeAKST,TemperatureF,Dew PointF,Humidity,Sea Level PressureIn,VisibilityMPH,Wind Direction,Wind SpeedMPH,Gust SpeedMPH,PrecipitationIn,Events,Conditions,WindDirDegrees,DateUTC
12:11 AM,39.2,30.2,70,29.10,7.0,ENE,15.0,-,0.01,Rain,Light Rain,70,2014-01-01 09:11:00
12:36 AM,39.2,32.0,75,29.09,10.0,East,13.8,-,0.02,Rain,Light Rain,80,2014-01-01 09:36:00
12:48 AM,41.0,32.0,70,29.09,6.0,East,17.3,26.5,0.02,Rain,Rain,90,2014-01-01 09:48:00
12:53 AM,41.0,33.1,73,29.08,6.0,East,11.5,26.5,0.03,Rain,Rain,100,2014-01-01 09:53:00
1:22 AM,39.2,32.0,75,29.06,10.0,ENE,12.7,-,0.01,Rain,Light Rain,70,2014-01-01 10:22:00
1:53 AM,41.0,33.1,73,29.06,8.0,East,15.0,-,0.01,Rain,Light Rain,90,2014-01-01 10:53:00
2:36 AM,41.0,33.8,76,29.05,8.0,East,12.7,25.3,0.02,Rain,Rain,90,2014-01-01 11:36:00
3:26 AM,41.0,33.8,76,29.04,10.0,East,9.2,-,0.03,,Overcast,80,2014-01-01 12:26:00
3:53 AM,39.9,33.1,77,29.05,6.0,NE,13.8,-,0.04,Rain,Rain,50,2014-01-01 12:53:00
4:04 AM,41.0,33.8,76,29.04,8.0,East,12.7,21.9,0.01,Rain,Light Rain,100,2014-01-01 13:04:00
4:53 AM,39.9,32.0,73,29.04,4.0,ESE,10.4,-,0.03,Rain,Heavy Rain,120,2014-01-01 13:53:00
5:53 AM,39.9,32.0,73,29.03,10.0,East,12.7,-,0.04,Rain,Light Rain,80,2014-01-01 14:53:00
6:16 AM,39.2,32.0,75,29.02,6.0,East,13.8,19.6,0.02,Rain,Rain,100,2014-01-01 15:16:00
6:31 AM,39.2,32.0,75,29.02,10.0,ENE,11.5,-,0.03,Rain,Light Rain,70,2014-01-01 15:31:00
6:53 AM,37.9,33.1,83,29.02,10.0,NE,10.4,-,0.03,Rain,Light Rain,50,2014-01-01 15:53:00
7:53 AM,39.9,32.0,73,29.01,10.0,East,16.1,-,0.01,Rain,Light Rain,80,2014-01-01 16:53:00
8:12 AM,39.2,32.0,75,29.01,10.0,East,13.8,-,0.01,Rain,Light Rain,80,2014-01-01 17:12:00
8:39 AM,39.2,32.0,75,29.01,10.0,ENE,12.7,-,0.01,Rain,Light Rain,70,2014-01-01 17:39:00
8:46 AM,39.2,32.0,75,29.01,10.0,ENE,13.8,-,0.02,Rain,Light Rain,70,2014-01-01 17:46:00
8:53 AM,39.0,32.0,76,29.01,9.0,ENE,11.5,-,0.02,Rain,Rain,70,2014-01-01 17:53:00
9:53 AM,39.9,33.1,77,29.03,10.0,East,12.7,-,0.02,Rain,Light Rain,80,2014-01-01 18:53:00
10:23 AM,39.2,33.8,81,29.04,10.0,ENE,10.4,-,0.01,Rain,Light Rain,60,2014-01-01 19:23:00
10:53 AM,39.9,33.1,77,29.06,8.0,East,4.6,-,0.01,Rain,Light Rain,90,2014-01-01 19:53:00
11:38 AM,39.2,33.8,81,29.08,10.0,East,4.6,-,0.02,Rain,Light Rain,80,2014-01-01 20:38:00
11:53 AM,39.0,33.1,79,29.08,10.0,East,4.6,-,0.02,,Overcast,80,2014-01-01 20:53:00
12:53 PM,39.0,34.0,82,29.12,10.0,Calm,Calm,-,0.01,,Overcast,0,2014-01-01 21:53:00
1:53 PM,41.0,32.0,70,29.14,10.0,South,8.1,-,0.00,Rain,Light Rain,180,2014-01-01 22:53:00
2:53 PM,41.0,33.1,73,29.18,10.0,SW,10.4,-,0.00,,Overcast,230,2014-01-01 23:53:00
3:17 PM,39.2,33.8,81,29.19,10.0,WSW,10.4,-,0.00,Rain,Light Rain,250,2014-01-02 00:17:00
3:53 PM,37.0,32.0,82,29.22,7.0,WSW,17.3,25.3,0.01,Rain,Rain,240,2014-01-02 00:53:00
4:20 PM,37.4,32.0,81,29.24,7.0,WSW,15.0,-,0.01,Rain,Light Rain,250,2014-01-02 01:20:00
4:53 PM,37.0,32.0,82,29.27,10.0,West,5.8,-,0.01,,Overcast,270,2014-01-02 01:53:00
5:00 PM,37.4,32.0,81,29.28,10.0,WSW,8.1,-,N/A,,Overcast,240,2014-01-02 02:00:00
5:30 PM,37.4,30.2,75,29.30,10.0,SW,16.1,-,0.00,,Overcast,230,2014-01-02 02:30:00
5:53 PM,37.0,30.9,79,29.31,10.0,SW,15.0,-,0.00,Rain,Light Rain,230,2014-01-02 02:53:00
6:40 PM,37.4,30.2,75,29.34,10.0,SSW,12.7,-,0.00,Rain,Light Rain,210,2014-01-02 03:40:00
6:53 PM,37.0,30.0,76,29.36,10.0,SW,16.1,19.6,0.00,,Overcast,230,2014-01-02 03:53:00
7:53 PM,37.0,30.0,76,29.38,10.0,WSW,6.9,-,N/A,,Overcast,240,2014-01-02 04:53:00
8:00 PM,37.4,30.2,75,29.38,10.0,SW,8.1,-,N/A,,Overcast,220,2014-01-02 05:00:00
8:07 PM,37.4,30.2,75,29.39,10.0,WSW,9.2,-,0.00,Rain,Light Rain,240,2014-01-02 05:07:00
8:35 PM,37.4,30.2,75,29.40,10.0,WSW,8.1,-,0.00,Rain,Light Rain,250,2014-01-02 05:35:00
8:53 PM,37.0,30.0,76,29.42,10.0,SW,9.2,-,0.00,Rain,Light Rain,230,2014-01-02 05:53:00
9:53 PM,37.0,28.9,73,29.45,10.0,SW,10.4,-,0.00,,Overcast,230,2014-01-02 06:53:00
10:53 PM,37.9,27.0,65,29.49,10.0,WSW,10.4,-,N/A,,Overcast,250,2014-01-02 07:53:00
11:53 PM,37.9,27.0,65,29.53,10.0,WSW,9.2,-,N/A,,Overcast,250,2014-01-02 08:53:00